Tracking 19827 objects as of 22-Aug-2019
HD Live streaming from Space Station
objects crossing your sky now

SCOUT A R/B

Track SCOUT A R/B now!
10-day predictions


NORAD ID: 2120
Int'l Code: 1966-024B
Perigee: 886.7 km
Apogee: 1,112.0 km
Inclination: 89.8 °
Period: 105.0 minutes
Semi major axis: 7370 km
RCS: 0.668 m2 (medium)
Launch date: March 26, 1966
Source: United States (US)
Launch site: AIR FORCE WESTERN TEST RANGE (AFWTR)

Note: This is a ROCKET BODY
aabbcc
Your satellite tracking list
Your tracking list is empty




NASA's NSSDC Master Catalog

Two Line Element Set (TLE):
1  2120U 66024B   19233.89789509 +.00000029 +00000-0 +17248-4 0  9993
2  2120 089.7642 222.5319 0152845 136.4746 224.8600 13.72052874670254
Source of the keplerian elements: AFSPC